[[{"header":{"parameterUnit":"m.s-1","parameterCategory":1,"la1":30.2991,"la2":30.254,"lo1":-89.0895,"lo2":-89.0444,"dy":0.0017,"dx":0.0017,"nx":28,"ny":28,"refTime":"2025-03-27T09:00:00:Z","depth":0,"parameterNumber":2,"parameterNumberName":"U-component_of_WINDS"},"data":[0,0,0,0,0,0,0,0,0,0,0,0,0,0,0,0,0,0,0,0,0,0,0,0,0,0,0,0,0,0,0,0,0,0,0,0,0,0,0,0,0,0,0,0,0,0,0,0,0,0,0,0,0,0,0,0,0,0,-1.1659,-1.166,0,-1.1716,-1.1717,-1.1717,-1.1734,-1.1733,-1.1733,-1.1733,-1.1792,-1.1793,-1.1795,0,0,0,0,0,0,0,0,0,0,0,0,0,-1.1567,-1.1568,-1.1659,-1.166,-1.1661,-1.1716,-1.1717,-1.1717,-1.1734,-1.1733,-1.1733,-1.1733,-1.1791,-1.1793,-1.1795,0,0,0,0,0,0,0,0,0,0,0,0,0,-1.1613,-1.1569,-1.1659,-1.1676,-1.1678,-1.1716,-1.1717,-1.1718,-1.1734,-1.1733,-1.1733,-1.1732,-1.179,-1.1793,-1.1796,-1.1822,0,0,-1.1804,-1.1805,0,0,0,0,0,0,0,0,-1.1611,-1.1617,-1.1672,-1.1674,-1.1677,-1.1717,-1.1706,-1.1753,-1.1734,-1.1712,-1.1733,-1.1732,-1.1767,-1.1772,-1.1784,-1.1825,-1.1827,-1.1805,-1.1806,-1.1807,-1.1808,0,0,0,0,0,0,0,-1.1607,-1.1614,-1.1682,-1.1673,-1.1676,-1.168,-1.1686,-1.1715,-1.1742,-1.1714,-1.1716,-1.1722,-1.1768,-1.1781,-1.1785,-1.1828,-1.1804,-1.1807,-1.1809,-1.181,-1.1894,-1.1894,0,0,0,0,0,0,-1.1601,-1.1612,-1.168,-1.1683,-1.1642,-1.1682,-1.1689,-1.1705,-1.1742,-1.1747,-1.1722,-1.1723,-1.1776,-1.1782,-1.1787,-1.182,-1.1807,-1.181,-1.1812,-1.1893,-1.1894,-1.1894,0,0,0,0,0,0,-1.1599,-1.1607,-1.1678,-1.1648,-1.1657,-1.1684,-1.1702,-1.1706,-1.1718,-1.1748,-1.1753,-1.173,-1.1776,-1.1783,-1.1813,-1.1822,-1.1811,-1.1814,-1.1893,-1.1893,-1.1894,-1.1886,0,0,0,0,0,0,-1.1596,-1.1606,-1.1616,-1.1648,-1.1659,-1.1702,-1.1702,-1.1708,-1.1723,-1.1724,-1.1756,-1.1761,-1.1776,-1.1809,-1.1816,-1.1826,-1.1816,-1.1892,-1.1893,-1.1894,-1.1886,-1.1887,-1.1887,0,0,0,0,0,-1.1593,-1.1612,-1.1617,-1.1625,-1.1672,-1.1703,-1.1709,-1.1726,-1.1724,-1.1734,-1.1753,-1.176,-1.182,-1.1812,-1.182,-1.1831,-1.1891,-1.1893,-1.1894,-1.1885,-1.1886,-1.1887,0,0,0,0,0,0,-1.1581,-1.1617,-1.1622,-1.1652,-1.1674,-1.1705,-1.1719,-1.1727,-1.175,-1.175,-1.1771,-1.1778,-1.1806,-1.1822,-1.1812,-1.1858,-1.1856,-1.1859,-1.1847,-1.1848,-1.1849,-1.1844,-1.1818,0,0,0,0,0,-1.1582,-1.1604,-1.1634,-1.1657,-1.1668,-1.1692,-1.1706,-1.1717,-1.1741,-1.1751,-1.1772,-1.1795,-1.1819,-1.1835,-1.1859,-1.1888,-1.1895,-1.19,-1.1901,-1.1901,-1.1903,-1.192,-1.1922,-1.1899,-1.1899,-1.1899,0,0,-1.1584,-1.1606,-1.1619,-1.1656,-1.1674,-1.1696,-1.17,-1.1723,-1.174,-1.1754,-1.1783,-1.18,-1.1827,-1.1857,-1.1871,-1.1871,-1.1911,-1.1903,-1.1903,-1.1905,-1.1921,-1.1923,-1.1925,-1.1899,-1.1899,-1.1899,0,0,-1.1599,-1.1618,-1.164,-1.1658,-1.1686,-1.1701,-1.1706,-1.1737,-1.1748,-1.1777,-1.1788,-1.1809,-1.185,-1.1869,-1.1884,-1.1906,-1.1914,-1.1914,-1.1918,-1.1934,-1.1935,-1.1937,-1.1944,-1.1947,-1.1916,-1.1916,-1.1916,0,-1.1598,-1.1632,-1.165,-1.1673,-1.1688,-1.1702,-1.1724,-1.1741,-1.1775,-1.1786,-1.1785,-1.1837,-1.1857,-1.1891,-1.1896,-1.1908,-1.1914,-1.191,-1.1934,-1.1936,-1.1937,-1.1945,-1.1947,-1.1916,-1.1916,-1.1916,-1.1916,0,-1.1629,-1.1653,-1.1667,-1.1699,-1.1716,-1.1738,-1.176,-1.1775,-1.1785,-1.1801,-1.183,-1.1854,-1.1883,-1.1892,-1.1902,-1.1928,-1.1927,-1.193,-1.1928,-1.1939,-1.1946,-1.1949,-1.1915,-1.1915,-1.1915,-1.1915,0,0,-1.1638,-1.168,-1.1684,-1.1699,-1.1731,-1.1749,-1.1772,-1.18,-1.1812,-1.1836,-1.1856,-1.189,-1.1893,-1.191,-1.1922,-1.1936,-1.1952,-1.1938,-1.1939,-1.1939,-1.1981,-1.1978,-1.1981,-1.1957,-1.1958,-1.1958,-1.1978,0,-1.1657,-1.1697,-1.1714,-1.1747,-1.1769,-1.1782,-1.1802,-1.1824,-1.1839,-1.186,-1.1877,-1.1901,-1.1903,-1.1913,-1.1928,-1.1947,-1.196,-1.1946,-1.1975,-1.1976,-1.1967,-1.1985,-1.1982,-1.1999,-1.1981,-1.1982,-1.1982,0,-1.1683,-1.1706,-1.1741,-1.177,-1.178,-1.1797,-1.1824,-1.1843,-1.1869,-1.1879,-1.1898,-1.1909,-1.1934,-1.1931,-1.1965,-1.1955,-1.1968,-1.1979,-1.1981,-1.1983,-1.1979,-1.1987,-1.2006,-1.2008,-1.1987,-1.1986,-1.1986,0,-1.1685,-1.1725,-1.1751,-1.1763,-1.1798,-1.1809,-1.1824,-1.1849,-1.1864,-1.1888,-1.1898,-1.1925,-1.1939,-1.1959,-1.1977,-1.1974,-1.201,-1.2009,-1.2019,-1.2019,-1.2026,-1.2025,-1.2046,-1.2035,-1.2035,-1.2035,-1.2035,0,-1.1704,-1.1725,-1.1752,-1.1768,-1.1792,-1.1811,-1.1834,-1.185,-1.1872,-1.1891,-1.1905,-1.1923,-1.1947,-1.1968,-1.1983,-1.2009,-1.2015,-1.2024,-1.2028,-1.2022,-1.2021,-1.2031,-1.203,-1.2036,-1.2036,-1.2036,-1.2036,0,-1.171,-1.1729,-1.1758,-1.1788,-1.1796,-1.1812,-1.1838,-1.1854,-1.187,-1.1895,-1.1902,-1.1927,-1.1952,-1.1973,-1.2007,-1.2017,-1.2044,-1.2048,-1.2035,-1.2037,-1.2046,-1.2044,-1.2073,-1.2078,-1.2065,-1.2065,-1.2065,0,-1.172,-1.1736,-1.1767,-1.1781,-1.1796,-1.1818,-1.1833,-1.1853,-1.1869,-1.1899,-1.1911,-1.1938,-1.196,-1.2,-1.2022,-1.2048,-1.2052,-1.2061,-1.2056,-1.205,-1.2052,-1.205,-1.2052,-1.2061,-1.2061,-1.2061,-1.2061,0,-1.1735,-1.1744,-1.1766,-1.1791,-1.1809,-1.183,-1.1851,-1.1862,-1.1886,-1.1903,-1.1929,-1.1946,-1.198,-1.2006,-1.2034,-1.205,-1.2059,-1.2062,-1.2066,-1.206,-1.2052,-1.2056,-1.2035,-1.2061,-1.2061,-1.2061,-1.2061,-1.2061,-1.1743,-1.1758,-1.1782,-1.1806,-1.1824,-1.1844,-1.186,-1.1878,-1.19,-1.1928,-1.1939,-1.1966,-1.199,-1.2029,-1.2045,-1.2066,-1.2067,-1.2073,-1.2074,-1.2075,-1.2074,-1.2049,-1.2072,-1.2072,-1.2072,-1.2072,-1.2072,0,-1.1759,-1.1775,-1.1797,-1.1826,-1.1845,-1.1851,-1.1875,-1.1891,-1.1914,-1.1936,-1.1957,-1.1987,-1.2012,-1.2036,-1.2062,-1.2075,-1.208,-1.2081,-1.208,-1.2084,-1.2072,-1.2066,-1.2077,-1.2077,-1.2077,-1.2077,-1.2077,-1.2077,-1.1769,-1.1795,-1.1806,-1.184,-1.1857,-1.1882,-1.1895,-1.1913,-1.1931,-1.1963,-1.1984,-1.1999,-1.2022,-1.2051,-1.2074,-1.2081,-1.2089,-1.209,-1.2097,-1.2085,-1.2085,-1.2084,-1.2078,-1.2092,-1.2092,-1.2107,-1.2107,-1.2107]},{"header":{"parameterUnit":"m.s-1","parameterCategory":1,"la1":30.2991,"la2":30.254,"lo1":-89.0895,"lo2":-89.0444,"dy":0.0017,"dx":0.0017,"nx":28,"ny":28,"refTime":"2025-03-27T09:00:00:Z","depth":0,"parameterNumber":3,"parameterNumberName":"V-component_of_WINDS"},"data":[0,0,0,0,0,0,0,0,0,0,0,0,0,0,0,0,0,0,0,0,0,0,0,0,0,0,0,0,0,0,0,0,0,0,0,0,0,0,0,0,0,0,0,0,0,0,0,0,0,0,0,0,0,0,0,0,0,0,-0.2869,-0.2869,0,-0.2822,-0.2822,-0.2821,-0.2792,-0.2792,-0.2792,-0.2792,-0.2742,-0.2741,-0.274,0,0,0,0,0,0,0,0,0,0,0,0,0,-0.2934,-0.2933,-0.2869,-0.2869,-0.2868,-0.2822,-0.2822,-0.2821,-0.2792,-0.2792,-0.2792,-0.2792,-0.2743,-0.2741,-0.274,0,0,0,0,0,0,0,0,0,0,0,0,0,-0.2898,-0.2933,-0.2869,-0.2848,-0.2846,-0.2822,-0.2822,-0.2821,-0.2792,-0.2792,-0.2792,-0.2792,-0.2743,-0.2741,-0.274,-0.2733,0,0,-0.2734,-0.2733,0,0,0,0,0,0,0,0,-0.29,-0.2896,-0.2852,-0.285,-0.2847,-0.2813,-0.2826,-0.2791,-0.2793,-0.2813,-0.2792,-0.2792,-0.2766,-0.2762,-0.2754,-0.273,-0.2728,-0.2734,-0.2733,-0.2732,-0.2732,0,0,0,0,0,0,0,-0.2903,-0.2898,-0.2851,-0.2852,-0.2848,-0.2841,-0.2836,-0.282,-0.2791,-0.2811,-0.2809,-0.2804,-0.2765,-0.2756,-0.2752,-0.2728,-0.2734,-0.2733,-0.2731,-0.2731,-0.2698,-0.2698,0,0,0,0,0,0,-0.2909,-0.29,-0.2852,-0.2849,-0.2874,-0.284,-0.2834,-0.2824,-0.2791,-0.2786,-0.2804,-0.2803,-0.2759,-0.2755,-0.2751,-0.2741,-0.2732,-0.2731,-0.2729,-0.2697,-0.2698,-0.2698,0,0,0,0,0,0,-0.291,-0.2905,-0.2854,-0.2874,-0.2867,-0.2839,-0.2828,-0.2823,-0.2814,-0.2786,-0.2781,-0.28,-0.2758,-0.2753,-0.2738,-0.2739,-0.273,-0.2728,-0.2697,-0.2698,-0.2698,-0.2722,0,0,0,0,0,0,-0.2912,-0.2906,-0.2903,-0.2874,-0.2866,-0.2842,-0.2828,-0.2823,-0.2812,-0.2809,-0.2781,-0.2776,-0.2758,-0.2741,-0.2736,-0.2736,-0.2727,-0.2697,-0.2697,-0.2698,-0.2721,-0.2723,-0.2724,0,0,0,0,0,-0.2915,-0.2911,-0.2903,-0.2897,-0.2862,-0.2842,-0.2838,-0.2817,-0.2812,-0.2809,-0.2791,-0.2777,-0.274,-0.2739,-0.2734,-0.2734,-0.2697,-0.2697,-0.2698,-0.272,-0.2722,-0.2724,0,0,0,0,0,0,-0.2939,-0.2906,-0.2897,-0.2884,-0.2866,-0.2838,-0.2833,-0.2821,-0.2804,-0.2802,-0.2777,-0.2771,-0.2759,-0.2744,-0.2745,-0.2726,-0.2717,-0.2716,-0.2735,-0.2738,-0.2739,-0.2743,-0.2725,0,0,0,0,0,-0.2943,-0.293,-0.2902,-0.2893,-0.2885,-0.2861,-0.2851,-0.2837,-0.2818,-0.281,-0.2791,-0.2772,-0.2756,-0.2746,-0.273,-0.2719,-0.2712,-0.2716,-0.2718,-0.272,-0.2719,-0.2713,-0.2715,-0.2699,-0.2699,-0.2699,0,0,-0.295,-0.2931,-0.2924,-0.2897,-0.2882,-0.2869,-0.2854,-0.2841,-0.2831,-0.2808,-0.2792,-0.2778,-0.2755,-0.2742,-0.2736,-0.273,-0.2722,-0.272,-0.2722,-0.272,-0.2714,-0.2715,-0.2717,-0.27,-0.27,-0.27,0,0,-0.2957,-0.2942,-0.2933,-0.2918,-0.2896,-0.288,-0.2878,-0.2851,-0.2841,-0.2826,-0.2808,-0.2796,-0.2769,-0.2754,-0.2743,-0.2747,-0.2734,-0.2742,-0.2752,-0.2747,-0.2748,-0.2749,-0.275,-0.2751,-0.2742,-0.2742,-0.2742,0,-0.2969,-0.295,-0.2929,-0.2918,-0.2907,-0.2886,-0.2877,-0.2864,-0.2837,-0.283,-0.2824,-0.2791,-0.2774,-0.2758,-0.2759,-0.2751,-0.2748,-0.2745,-0.2749,-0.275,-0.2751,-0.2752,-0.2753,-0.2743,-0.2743,-0.2743,-0.2743,0,-0.2966,-0.2953,-0.2948,-0.2924,-0.2912,-0.2902,-0.288,-0.2871,-0.2859,-0.2844,-0.2829,-0.2809,-0.2788,-0.2784,-0.2771,-0.2766,-0.2763,-0.2754,-0.2744,-0.2754,-0.2754,-0.2755,-0.2745,-0.2745,-0.2744,-0.2744,0,0,-0.2985,-0.2951,-0.295,-0.2939,-0.2914,-0.2903,-0.2892,-0.2873,-0.2866,-0.2849,-0.2839,-0.2818,-0.281,-0.2797,-0.2783,-0.2778,-0.2783,-0.2769,-0.2769,-0.2773,-0.2777,-0.2784,-0.2785,-0.2775,-0.2775,-0.2775,-0.2779,0,-0.2988,-0.2968,-0.2951,-0.2937,-0.2925,-0.2906,-0.2897,-0.288,-0.2866,-0.2854,-0.2838,-0.2824,-0.2814,-0.2806,-0.2801,-0.2784,-0.2784,-0.2783,-0.2765,-0.2765,-0.2771,-0.2785,-0.2792,-0.2797,-0.2779,-0.2779,-0.2779,0,-0.2989,-0.2974,-0.2959,-0.2937,-0.2931,-0.2923,-0.2905,-0.2893,-0.2874,-0.2865,-0.2852,-0.2837,-0.2825,-0.2818,-0.2801,-0.2801,-0.2793,-0.2784,-0.2784,-0.2781,-0.2772,-0.2783,-0.2798,-0.2799,-0.2779,-0.2779,-0.2779,0,-0.3005,-0.2981,-0.2969,-0.2961,-0.2934,-0.2929,-0.2917,-0.2898,-0.2888,-0.2873,-0.2866,-0.2849,-0.284,-0.2827,-0.2809,-0.2805,-0.2794,-0.2785,-0.2786,-0.2786,-0.2783,-0.2784,-0.2797,-0.2779,-0.2779,-0.2779,-0.2779,0,-0.301,-0.3002,-0.2976,-0.2969,-0.296,-0.294,-0.2931,-0.2918,-0.2902,-0.2892,-0.2874,-0.2865,-0.2842,-0.283,-0.2815,-0.2804,-0.28,-0.2792,-0.2788,-0.2793,-0.2794,-0.2787,-0.2786,-0.2779,-0.2779,-0.2779,-0.2779,0,-0.3026,-0.3008,-0.2994,-0.2971,-0.2965,-0.2959,-0.2938,-0.2931,-0.2917,-0.2904,-0.29,-0.2878,-0.2864,-0.2844,-0.2823,-0.2814,-0.2804,-0.2798,-0.2811,-0.2808,-0.281,-0.281,-0.282,-0.282,-0.2802,-0.2802,-0.2802,0,-0.303,-0.3024,-0.3,-0.2993,-0.2982,-0.297,-0.296,-0.2941,-0.2932,-0.2911,-0.2906,-0.2891,-0.2877,-0.2855,-0.2836,-0.2821,-0.2814,-0.2818,-0.2811,-0.2817,-0.2814,-0.2815,-0.2814,-0.282,-0.282,-0.282,-0.2821,0,-0.304,-0.3032,-0.3019,-0.3004,-0.2993,-0.298,-0.2966,-0.2961,-0.2938,-0.2929,-0.2914,-0.2904,-0.2884,-0.2868,-0.2851,-0.2838,-0.2826,-0.2823,-0.2823,-0.2827,-0.2835,-0.2831,-0.2815,-0.2823,-0.2823,-0.2822,-0.2822,-0.2822,-0.305,-0.3044,-0.3026,-0.3013,-0.3001,-0.2989,-0.2981,-0.2966,-0.2954,-0.2936,-0.2926,-0.2912,-0.2895,-0.287,-0.2858,-0.2847,-0.2842,-0.2841,-0.2841,-0.2841,-0.2843,-0.2838,-0.2844,-0.2844,-0.2844,-0.2844,-0.2843,0,-0.3059,-0.3047,-0.3035,-0.3017,-0.3007,-0.2997,-0.2981,-0.2973,-0.2961,-0.2947,-0.2934,-0.2918,-0.2904,-0.2885,-0.287,-0.2864,-0.2858,-0.2861,-0.2861,-0.2858,-0.2848,-0.285,-0.2866,-0.2866,-0.2866,-0.2866,-0.2866,-0.2866,-0.3062,-0.3051,-0.3041,-0.3025,-0.3013,-0.3,-0.2992,-0.2981,-0.2969,-0.2952,-0.294,-0.2929,-0.2913,-0.2896,-0.2883,-0.2878,-0.2873,-0.2877,-0.287,-0.2861,-0.2859,-0.2857,-0.2859,-0.2876,-0.2876,-0.2881,-0.2881,-0.2881]}]]